Location: DARK SKY Beskydy - Park tmavé oblohy, www.darkskybeskydy.cz
(49.4926°N, 18.5016°E)
Time: 19:24:44
(UTC+02:00)

PCSat - Pass Details

Date: 07 August 2024
Orbit: 781 x 793 km, 67.1° (Epoch: 08 September)

Event Time Altitude Azimuth Distance (km) Brightness Sun altitude
Rises 20:51:44 0° 268° (W) 3,283 13.8 -5.8°
Reaches altitude 10° 20:54:48 10° 286° (WNW) 2,358 13.5 -6.2°
Maximum altitude 20:58:43 20° 332° (NNW) 1,775 12.4 -6.7°
Drops below altitude 10° 21:02:39 10° 19° (NNE) 2,368 12.3 -7.3°
Sets 21:05:45 0° 36° (NE) 3,301 12.8 -7.7°
